Simultaneous Nadir Overpasses (SNOs) Predictions

Prediction of SNOs between METOP-A and TERRA Satellite Orbit:

Table of predicted SNOs for the next 14.0 days since TLE Epoch: 2/15/2014
Index Date (METOP-A) Time (METOP-A) Lat,Lon (METOP-A) SZA (METOP-A ) Date (TERRA) Time (TERRA) Lat,Lon (TERRA) SZA (TERRA ) Distance(km) Time Diff (sec)
1 02/15/2014 07:10:36 81.33, 119.62 96.32 02/15/2014 07:11:43 81.33, 119.64 96.35 0.87 67
2 02/15/2014 08:01:15 -81.34, -72.45 83.63 02/15/2014 08:01:09 -81.34, -72.45 83.63 0.04 6
3 02/18/2014 02:44:57 81.34,-173.60 95.39 02/18/2014 02:45:59 81.34,-173.59 95.42 0.71 62
4 02/18/2014 03:35:37 -81.34, -6.03 84.60 02/18/2014 03:35:26 -81.34, -6.04 84.61 0.23 11
5 02/20/2014 22:19:18 81.34,-107.29 94.39 02/20/2014 22:20:14 81.34,-107.34 94.41 0.84 56
6 02/20/2014 23:09:58 -81.34, 60.32 85.60 02/20/2014 23:09:41 -81.33, 60.24 85.62 1.78 17
7 02/23/2014 17:53:39 81.34, -40.66 93.40 02/23/2014 17:54:28 81.34, -40.84 93.40 3.03 49
8 02/23/2014 18:44:20 -81.34, 126.61 86.62 02/23/2014 18:43:55 -81.34, 126.76 86.62 2.60 25
9 02/26/2014 13:28:01 81.34, 25.51 92.35 02/26/2014 13:28:41 81.33, 25.53 92.36 0.48 40




NCC Satellite Simultaneous Nadir Overpasses (SNOs) Prediction Service
